Location: Burzi?i
(45.0869°N, 16.0577°E)
Time: 03:56:52
(UTC+00:00)

USA 281 - Pass Details

Date: 29 October 2020
Orbit: 1078 x 1081 km, 106.0° (Epoch: 28 November)

Event Time Altitude Azimuth Distance (km) Brightness Sun altitude
Rises 16:43:07 0° 164° (SSE) 3,861 6.1 -10.3°
Reaches altitude 10° 16:45:39 10° 167° (SSE) 2,909 5.5 -10.8°
Maximum altitude 16:52:08 64° 249° (WSW) 1,190 3.8 -11.9°
Drops below altitude 10° 16:58:39 10° 330° (NNW) 2,928 5.8 -13.1°
Sets 17:01:13 0° 334° (NNW) 3,889 6.4 -13.5°
